This demonstration page uses our WeatherBlox Daily Observations layout. Learn more.

Hourly Observations for January 26, 2020

Temp ( °F °C ) Dew Point ( °F °C ) Humidity (%) Winds ( mph kmh ) Pressure ( in mb ) Visibility ( mi km ) Precip ( " mm )
12:15 am 00:15 Cloudy 30 -1 30 -1 100 100 WSW 15 24 30.02 1017 5 8.0467 N/A
12:35 am 00:35 Cloudy 30 -1 30 -1 100 100 W 16 26 30.02 1017 7 11.26538 N/A
12:56 am 00:56 Cloudy 30 -1 30 -1 100 100 W 16 26 30.02 1017 7 11.26538 N/A
1:15 am 01:15 Cloudy 30 -1 30 -1 100 100 W 14 22 30.02 1017 7 11.26538 N/A
1:35 am 01:35 Cloudy 30 -1 30 -1 100 100 W 15 24 30.02 1017 7 11.26538 N/A
1:55 am 01:55 Cloudy 30 -1 30 -1 100 100 WSW 16 26 30.02 1017 7 11.26538 N/A
2:15 am 02:15 Cloudy 30 -1 30 -1 100 100 WSW 13 20 30.03 1017 5 8.0467 N/A
2:36 am 02:36 Cloudy 30 -1 30 -1 100 100 WSW 10 17 30.03 1017 5 8.0467 N/A
2:56 am 02:56 Cloudy 30 -1 30 -1 100 100 W 13 20 30.03 1017 5 8.0467 N/A
3:15 am 03:15 Cloudy 30 -1 30 -1 100 100 W 13 20 30.03 1017 5 8.0467 N/A
3:36 am 03:36 Cloudy 30 -1 30 -1 100 100 W 13 20 30.03 1017 7 11.26538 N/A
3:55 am 03:55 Cloudy 30 -1 30 -1 100 100 WSW 12 19 30.03 1017 10 16.0934 N/A
4:15 am 04:15 Cloudy 30 -1 30 -1 100 100 WSW 12 19 30.02 1017 10 16.0934 N/A
4:35 am 04:35 Cloudy 30 -1 30 -1 100 100 W 14 22 30.02 1017 4 6.43736 N/A
4:55 am 04:55 Cloudy 30 -1 30 -1 100 100 W 12 19 30.02 1017 5 8.0467 N/A
5:16 am 05:16 Cloudy 30 -1 30 -1 100 100 WSW 10 17 30.02 1017 4 6.43736 N/A
5:36 am 05:36 Cloudy 30 -1 30 -1 100 100 W 12 19 30.03 1017 7 11.26538 N/A
5:55 am 05:55 Cloudy 30 -1 30 -1 100 100 WSW 12 19 30.02 1017 5 8.0467 N/A
6:15 am 06:15 Cloudy 30 -1 30 -1 100 100 W 12 19 30.02 1017 5 8.0467 N/A
6:35 am 06:35 Cloudy 30 -1 30 -1 100 100 W 12 19 30.03 1017 5 8.0467 N/A
6:56 am 06:56 Cloudy 30 -1 30 -1 100 100 WSW 8 13 30.02 1017 5 8.0467 N/A
7:16 am 07:16 Cloudy 30 -1 30 -1 100 100 WSW 9 15 30.03 1017 7 11.26538 N/A
7:36 am 07:36 Cloudy 30 -1 30 -1 100 100 WSW 10 17 30.04 1017 7 11.26538 N/A
7:56 am 07:56 Cloudy 30 -1 30 -1 100 100 WSW 7 11 30.04 1017 5 8.0467 N/A
8:15 am 08:15 Cloudy 30 -1 30 -1 100 100 WSW 9 15 30.04 1017 7 11.26538 N/A
8:36 am 08:36 Cloudy 30 -1 30 -1 100 100 WSW 8 13 30.04 1017 7 11.26538 N/A
8:55 am 08:55 Cloudy 30 -1 30 -1 100 100 WSW 9 15 30.04 1017 7 11.26538 N/A
9:15 am 09:15 Cloudy 30 -1 30 -1 100 100 WSW 9 15 30.04 1017 7 11.26538 N/A
9:36 am 09:36 Cloudy 30 -1 30 -1 100 100 WSW 8 13 30.04 1017 7 11.26538 N/A
9:56 am 09:56 Cloudy 30 -1 30 -1 100 100 WSW 9 15 30.04 1017 7 11.26538 N/A
10:16 am 10:16 Cloudy 30 -1 30 -1 100 100 WSW 8 13 30.04 1017 7 11.26538 N/A
10:35 am 10:35 Cloudy 32 0 32 0 100 100 WSW 9 15 30.04 1017 7 11.26538 N/A
10:56 am 10:56 Cloudy 32 0 32 0 100 100 W 12 19 30.04 1017 7 11.26538 N/A
11:16 am 11:16 Cloudy 32 0 32 0 100 100 W 10 17 30.04 1017 7 11.26538 N/A
11:36 am 11:36 Cloudy 32 0 32 0 100 100 WSW 12 19 30.04 1017 10 16.0934 N/A
11:56 am 11:56 Cloudy 32 0 32 0 100 100 SW 8 13 30.04 1017 10 16.0934 N/A
12:15 pm 12:15 Cloudy 32 0 32 0 100 100 SW 13 20 30.03 1017 10 16.0934 N/A
12:35 pm 12:35 Cloudy 32 0 32 0 100 100 WSW 10 17 30.03 1017 10 16.0934 N/A
12:55 pm 12:55 Cloudy 32 0 32 0 100 100 SW 12 19 30.02 1016 10 16.0934 N/A
1:15 pm 13:15 Cloudy 32 0 32 0 100 100 SW 13 20 30.01 1016 10 16.0934 N/A
1:35 pm 13:35 Cloudy 34 1 34 1 100 100 WSW 7 11 29.98 1015 10 16.0934 N/A
1:56 pm 13:56 Cloudy 34 1 34 1 100 100 WSW 8 13 29.97 1015 10 16.0934 N/A
2:15 pm 14:15 Cloudy 36 2 36 2 100 100 SW 8 13 29.96 1014 10 16.0934 N/A
2:36 pm 14:36 Cloudy 36 2 36 2 100 100 WSW 8 13 29.96 1014 10 16.0934 N/A
2:56 pm 14:56 Mostly Cloudy 37 3 36 2 93 93 WSW 9 15 29.95 1014 10 16.0934 N/A
3:15 pm 15:15 Partly Cloudy 37 3 36 2 93 93 WSW 10 17 29.95 1014 10 16.0934 N/A
3:35 pm 15:35 Partly Cloudy 37 3 36 2 93 93 W 12 19 29.95 1014 10 16.0934 N/A
3:56 pm 15:56 Partly Cloudy 39 4 36 2 87 87 WSW 12 19 29.95 1014 10 16.0934 N/A
4:15 pm 16:15 Partly Cloudy 37 3 36 2 93 93 W 9 15 29.95 1014 10 16.0934 N/A
4:35 pm 16:35 Sunny 37 3 36 2 93 93 W 10 17 29.95 1014 10 16.0934 N/A
4:55 pm 16:55 Sunny 37 3 36 2 93 93 W 8 13 29.95 1014 10 16.0934 N/A
5:15 pm 17:15 Sunny 36 2 34 1 93 93 W 7 11 29.96 1014 10 16.0934 N/A
5:35 pm 17:35 Sunny 36 2 34 1 93 93 W 7 11 29.96 1014 10 16.0934 N/A
5:55 pm 17:55 Sunny 34 1 34 1 100 100 W 5 7 29.95 1014 10 16.0934 N/A
6:16 pm 18:16 Partly Cloudy 32 0 32 0 100 100 W 5 7 29.96 1014 10 16.0934 N/A
6:36 pm 18:36 Partly Cloudy 32 0 32 0 100 100 SW 3 6 29.96 1014 10 16.0934 N/A
6:55 pm 18:55 Cloudy 32 0 32 0 100 100 WSW 3 6 29.96 1014 10 16.0934 N/A
7:16 pm 19:16 Cloudy 32 0 32 0 100 100 Calm 29.96 1014 10 16.0934 N/A
7:35 pm 19:35 Cloudy 32 0 32 0 100 100 Calm 29.96 1014 10 16.0934 N/A
7:55 pm 19:55 Partly Cloudy 32 0 32 0 100 100 Calm 29.96 1014 10 16.0934 N/A
8:16 pm 20:16 Clear 32 0 32 0 100 100 Calm 29.96 1014 10 16.0934 N/A
8:36 pm 20:36 Clear 30 -1 30 -1 100 100 SSW 3 6 29.96 1015 10 16.0934 N/A
8:56 pm 20:56 Clear 30 -1 30 -1 100 100 SW 3 6 29.96 1015 10 16.0934 N/A
9:16 pm 21:16 Mostly Cloudy 30 -1 30 -1 100 100 SW 3 6 29.96 1015 10 16.0934 N/A
9:35 pm 21:35 Cloudy 30 -1 30 -1 100 100 SW 5 7 29.96 1015 10 16.0934 N/A
9:55 pm 21:55 Mostly Cloudy 30 -1 30 -1 100 100 SW 5 7 29.96 1015 10 16.0934 N/A
10:16 pm 22:16 Mostly Cloudy 30 -1 30 -1 100 100 SW 5 7 29.96 1015 10 16.0934 N/A
10:35 pm 22:35 Cloudy 32 0 32 0 100 100 WSW 5 7 29.95 1014 10 16.0934 N/A
10:55 pm 22:55 Partly Cloudy 30 -1 30 -1 100 100 SW 5 7 29.95 1014 10 16.0934 N/A
11:16 pm 23:16 Clear 30 -1 30 -1 100 100 WSW 5 7 29.95 1014 10 16.0934 N/A
11:36 pm 23:36 Clear 28 -2 28 -2 100 100 WSW 5 7 29.95 1014 10 16.0934 N/A
11:56 pm 23:56 Clear 28 -2 28 -2 100 100 W 3 6 29.95 1014 10 16.0934 N/A

Powered by AerisWeather